Regional Weather Roundup
Issued by NWS Upton, NY

Current Version | Previous Version | Graphics & Text | Print | Product List | Glossary Off
Versions: 1 2 3 4 5 6 7 8 9 10 11 12 13 14 15 16 17 18 19 20 21 22 23 24 25 26 27 28 29 30 31 32 33 34 35 36 37 38 39 40 41 42 43 44 45 46 47 48 49 50

121
ASUS41 KOKX 280008
RWROKX

REGIONAL WEATHER ROUNDUP
NATIONAL WEATHER SERVICE NEW YORK NY
800 PM EDT THU APR 27 2017

NOTE: "FAIR" INDICATES FEW OR NO CLOUDS BELOW 12,000 FEET WITH NO
SIGNIFICANT WEATHER AND/OR OBSTRUCTIONS TO VISIBILITY.

NYZ071-072-176-178-NJZ106-104-280100-
NEW YORK CITY METRO AREA

CITY           SKY/WX    TMP DP  RH WIND       PRES   REMARKS
Central Park   CLOUDY    60  60 100 SE8       29.90F FOG
Wall St Helipt CLOUDY    59  57  94 VRB5      29.90S FOG
Bronx Bot Gard   N/A     61  57  88 E9        29.90S
LaGuardia APRT CLOUDY    63  58  83 SE12      29.88S FOG
Kennedy INTL   DRZL/FOG  59  59 100 E12       29.90S VSB 3/4
Breezy Point     N/A     52 N/A N/A E10         N/A
Newark/Liberty DRZL/FOG  59  57  93 SE9       29.88S VSB 1
Teterboro      CLOUDY    62  60  93 SE10      29.87S FOG
$$

NYZ177-179-078>081-280100-
LONG ISLAND NEW YORK

CITY           SKY/WX    TMP DP  RH WIND       PRES   REMARKS
Jones Beach      N/A     54 N/A N/A E9          N/A
Matinecock PT    N/A     61 N/A N/A CALM        N/A
Farmingdale    CLOUDY    59  57  93 SE9       29.90F
MacArthur/ISP  CLOUDY    59  58  96 SE9       29.91F
Shirley        CLOUDY    57  56  96 SE7       29.92F
Mt Sinai Harb    N/A     59 N/A N/A S9          N/A
Westhampton    CLOUDY    55  53  93 SE6       29.95S
East Hampton   CLOUDY    52  51  97 S3        29.94S
Montauk        NOT AVBL
$$

NYZ052-065-067-280100-
HUDSON VALLEY

CITY           SKY/WX    TMP DP  RH WIND       PRES   REMARKS
White Plains   CLOUDY    60  56  86 SE9       29.90R
Larchmont Harb   N/A     57 N/A N/A E10         N/A
Croton O-T Hud   N/A     63 N/A N/A S5          N/A
Newburgh       CLOUDY    63  59  88 SE12      29.88  FOG
Montgomery     CLOUDY    65  57  75 SE9       29.85R
Poughkeepsie   CLOUDY    64  56  75 SE8       29.85S
Albany         MOCLDY    69  57  65 S13       29.81S
$$

NJZ001-105-106-008-010-013-015-019>022-104-280100-
NEW JERSEY

CITY           SKY/WX    TMP DP  RH WIND       PRES   REMARKS
Newark/Liberty DRZL/FOG  59  57  93 SE9       29.88S VSB 1
Teterboro      CLOUDY    62  60  93 SE10      29.87S FOG
Caldwell       CLOUDY    60  58  92 SE5       29.89S FOG
Somerville     CLOUDY    65  61  87 E7        29.84R
Linden         CLOUDY    56  55  93 CALM      29.88S FOG
Sussex         CLOUDY    63  59  87 MISG      29.86S
Andover          N/A     62  57  83 VRB5      29.85R
Trenton        PTCLDY    66  62  87 SE7       29.83R
Millville      PTCLDY    67  62  84 S5        29.82S
Atlantic City  PTCLDY    64  58  80 S13       29.85R
Wrightstown    CLEAR     64  59  86 SE9       29.82S
Toms River     PTCLDY    58  56  93 SE3       29.88R
Belmar         LGT RAIN  56  55  97 SE7       29.88S VSB 3/4
$$

PAZ047>061-062-071-280100-
EASTERN PENNSYLVANIA

CITY           SKY/WX    TMP DP  RH WIND       PRES   REMARKS
Philadelphia   MOCLDY    72  62  71 SE6       29.81R
Allentown      MOCLDY    74  62  66 SE9       29.80S
Scranton       PTCLDY    75  62  64 VRB5      29.78R
$$

CTZ002-004>006-009-010-012-RIZ004-006-007-MAZ004-011-015-280100-
SOUTHERN NEW ENGLAND
 IN CT

CITY           SKY/WX    TMP DP  RH WIND       PRES   REMARKS
Bradley INTL   CLOUDY    64  57  78 S10       29.90R
Hartford       CLOUDY    63  57  81 S9        29.90R
Danbury        CLOUDY    60  56  86 SE9       29.91S
Wtrbury/Oxford CLOUDY    61  54  77 S8        29.92S
Bridgeport     CLOUDY    61  54  77 S7        29.92R
Meriden        CLOUDY    63  55  75 S10       29.91S
New Haven      CLOUDY    57  53  86 SE5       29.92S
Chester        CLOUDY    57  55  94 S8        29.93S
Groton         CLOUDY    51  50  96 S3        29.94R FOG
Wilimantic     CLOUDY    64  58  80 S9        29.93R

 IN RI

CITY           SKY/WX    TMP DP  RH WIND       PRES   REMARKS
Providence     CLOUDY    57  56  96 S5        29.94R
Block Island   LGT RAIN  52  51  97 S8        29.96R VSB 1/4
Westerly       CLOUDY    54  53  97 S6        29.95R FOG
 IN MA

CITY           SKY/WX    TMP DP  RH WIND       PRES   REMARKS
Boston         CLOUDY    52  51  97 E9        29.93R
Worcester      CLOUDY    61  54  77 S6        29.92R
Westfield      CLOUDY    65  58  78 S8        29.89R
Provincetown   MOCLDY    54  51  90 S10       29.95R
Nantucket      CLOUDY    48  47  96 S8        29.97R FOG
$$

ANZ330-335-338-340-345-350-353-355-280100-
COASTAL MARINE OBSERVATIONS


STATION/POSITION TIME  SKY/WX   TEMP    WIND        PRES    VSBY  WAVE
                                AIR SEA DIR/SP/G                  HT/PER
                 (UTC)          (F)     (DEG/KT/KT) (MB)    (MI)  (FT/S)
NY HARB ENTRANCE 2250            52 49  120/ 10/ 12 1012.1          5/ 9
20 S FIRE ISLAND 2350            53 50  130/ 12/ 12 1011.6          6/10
GREAT SOUTH BAY  2315            55 58  130/  8/ 10   N/A
23 SSW MONTAUK P 2350            49 49              1014.0          6/ 9
15 E BARNEGAT LI 2330               52                N/A           5/ 9
HUDSON CANYON    2350            55 51  140/ 10/ 10 1012.8          6/ 9
KINGS POINT      2330            61 52  190/  5/ 12 1012.0
EXECUTION ROCKS  NOT AVBL
CENTRAL LI SOUND 2300            51     160/  6/  6   N/A           0
EASTERN LI SOUND NOT AVBL
ROBBINS REEF     2330            58     130/ 13/ 16 1011.9
$$


>>>>>>>>>>>>>>>>>>>>>>>>>>>> KEY <<<<<<<<<<<<<<<<<<<<<<<<<<<
>                                                          <
>     SKY/WX - Sky Condition/Present Weather               <
>     TMP    - Temperature in Fahrenheit                   <
>     DP     - Dew Point in Fahrenheit                     <
>     RH     - Relative Humidity in Percent                <
>     WIND   - Direction (from) and Speed in MPH           <
>     PRES   - Mean Sea Level Pressure (inches of Hg)      <
>     WCI    - Wind Chill Index                            <
>     VSB    - VISIBILITY IN MILES                         <
>     HX     - HEAT INDEX                                  <
>     TC     - TEMPERATURE IN CELSIUS                      <
>     VRB    - VARIABLE WIND DIRECTION                     <
>                                                          <
>>>>>>>>>>>>>>>>>>>>>>>>>>>> KEY <<<<<<<<<<<<<<<<<<<<<<<<<<<




USA.gov is the U.S. government's official web portal to all federal, state and local government web resources and services.